Regional Weather Roundup
Issued by NWS

Home | Current Version | Previous Version | Text Only | Print | Product List | Glossary Off
Versions: 1 2 3 4 5 6 7 8 9 10 11 12 13 14 15 16 17 18 19 20 21 22 23 24 25 26 27 28 29 30 31 32 33 34 35 36 37 38 39 40 41 42 43 44 45 46 47 48 49 50

235
ASUS43 KTOP 240159
RWRKS

WEATHER ROUNDUP FOR KANSAS
NATIONAL WEATHER SERVICE GOODLAND KS
900 PM CDT SUN JUL 23 2017

NOTE:  "FAIR" INDICATES FEW OR NO CLOUDS BELOW 12,000 FEET WITH NO
SIGNIFICANT WEATHER AND/OR OBSTRUCTIONS TO VISIBILITY.

KSZ001>006-013>018-027>032-041>047-240300-
NORTHWEST KANSAS

CITY           SKY/WX    TMP DP  RH WIND       PRES   REMARKS
GOODLAND       CLEAR     76  57  51 S7        30.05S
HAYS             N/A     84  62  47 SE8       29.96R
HILL CITY      CLEAR     85  62  46 E5        29.98R
RUSSELL        CLEAR     86  60  41 E9        29.94R
$$

KSZ061>065-074>080-084>089-240300-
SOUTHWEST KANSAS

CITY           SKY/WX    TMP DP  RH WIND       PRES   REMARKS
DODGE CITY     CLEAR     81  61  50 SE8       30.01R
ELKHART          N/A     80  56  43 E7          N/A
GARDEN CITY    CLEAR     82  59  45 E7        30.01R
LIBERAL        CLEAR     83  64  52 E8        30.02R
$$

KSZ066>073-081>083-090>101-240300-
SOUTHEAST KANSAS

CITY           SKY/WX    TMP DP  RH WIND       PRES   REMARKS
CHANUTE        CLOUDY    82  72  71 SE3       29.90R
COFFEYVILLE    MOCLDY    85  71  63 NE3       29.90R HAZE
HUTCHINSON     CLEAR     80  70  71 E3        29.94R
MEDICINE LODGE   N/A     87  63  44 NE6       29.93R
NEWTON         CLEAR     82  72  71 E3        29.95R
PARSONS        PTCLDY    79  74  84 CALM      29.92R
WICHITA INTL   PTCLDY    86  69  56 E7        29.92R
WICHITA JABRA  CLEAR     84  70  62 CALM      29.93R
WICHITA MCCONL CLEAR     87  67  51 E3        29.93R
WINFIELD       CLEAR     87  68  52 NE3       29.92R
$$

KSZ007>012-019>026-033>040-048>060-102>105-240300-
NORTHEAST KANSAS

CITY           SKY/WX    TMP DP  RH WIND       PRES   REMARKS
CONCORDIA      CLEAR     82  71  69 NE3       29.93R
EMPORIA        PTCLDY    80  73  79 S5        29.92R
LAWRENCE       PTCLDY    83  79  88 CALM      29.89R
MANHATTAN      CLOUDY    85  74  69 CALM      29.90R
OLATHE IND     PTCLDY    84  74  71 CALM      29.91R
OLATHE EXE     PTCLDY    84  76  76 CALM      29.90R
SALINA         CLEAR     88  67  49 SE7       29.92R
TOPEKA BILLARD PTCLDY    85  78  80 CALM      29.89R HX  96
TOPEKA FORBES  PTCLDY    86  75  69 CALM      29.91R HX  95
$$




USA.gov is the U.S. government's official web portal to all federal, state and local government web resources and services.